FW3057 Weather Reports


time (UTC)temp
C
wind
direction
speed
KPH
gust
KPH
rain 1hr
cm
rain 24hr
cm
rain mn
cm
humidity
%
barometer
mb
20260502130310 15 171 14.5 22.5 0.00 1.60 1.60 97 1013.1
20260502123310 14 207 6.4 14.5 0.00 1.60 1.60 98 1013.5
20260502122310 14 186 6.4 14.5 0.00 1.60 1.60 98 1013.4
20260502121310 14 157 4.8 9.7 0.00 1.60 1.60 98 1013.5
20260502115310 14 96 8.0 11.3 0.00 1.60 1.60 98 1013.6
20260502114310 14 105 8.0 11.3 0.00 1.60 1.60 98 1013.7
20260502112310 13 140 6.4 17.7 0.00 1.60 1.60 98 1013.6
20260502111310 13 101 11.3 16.1 0.03 1.60 1.60 98 1013.4
20260502110310 13 128 8.0 11.3 0.05 1.60 1.60 99 1013.4
20260502105310 13 152 8.0 12.9 0.15 1.60 1.60 99 1013.5
20260502104310 13 96 8.0 11.3 0.23 1.60 1.60 99 1013.4
20260502103310 13 42 3.2 6.4 0.33 1.60 1.60 98 1013.4
20260502102310 13 234 1.6 12.9 0.46 1.60 1.60 98 1013.9
20260502101310 13 21 8.0 12.9 0.51 1.57 1.57 98 1013.6
20260502100310 13 269 1.6 12.9 0.71 1.55 1.55 98 1015.3
20260502091311 13 220 9.7 19.3 0.56 1.09 1.09 98 1016.5
20260502071310 13 98 8.0 17.7 0.15 0.30 0.30 97 1015.6
20260502070310 13 91 14.5 19.3 0.13 0.25 0.25 97 1015.8
20260502065310 13 89 6.4 12.9 0.15 0.25 0.25 97 1016.2
20260502064310 12 89 4.8 11.3 0.15 0.25 0.25 97 1015.8
20260502063310 12 103 9.7 14.5 0.15 0.23 0.23 97 1015.9
20260502062310 12 103 9.7 19.3 0.15 0.18 0.18 96 1016.1
20260502061309 12 84 11.3 16.1 0.15 0.15 0.15 96 1016.4
20260502060309 12 112 9.7 16.1 0.15 0.15 0.15 96 1016.8
20260502055309 12 77 8.0 12.9 0.13 0.13 0.13 95 1016.9
20260502054309 12 121 6.4 11.3 0.10 0.10 0.10 95 1017.1
20260502053309 12 129 4.8 6.4 0.08 0.08 0.08 95 1017.2
20260502052309 12 108 3.2 4.8 0.05 0.05 0.05 95 1017.3
20260502051310 12 218 3.2 9.7 0.00 0.00 0.00 94 1017.6
20260502050309 12 211 6.4 9.7 0.00 0.00 0.00 94 1017.7
20260502045309 12 100 3.2 6.4 0.00 0.00 0.00 94 1017.3
20260502043312 12 42 4.8 8.0 0.00 0.00 0.00 94 1017.2
20260502041311 12 82 4.8 6.4 0.00 0.00 0.00 94 1017.4
20260502040311 12 58 4.8 11.3 0.00 0.00 0.00 94 1017.4
20260502035311 12 86 4.8 8.0 0.00 0.00 0.00 93 1017.5
20260502034311 12 54 4.8 8.0 0.00 0.00 0.00 93 1017.7
20260502033311 12 89 4.8 6.4 0.00 0.00 0.00 93 1017.9
20260502032311 12 46 1.6 4.8 0.00 0.00 0.00 93 1018.0
20260502031311 12 105 1.6 3.2 0.00 0.00 0.00 92 1018.0
20260502030311 12 89 3.2 6.4 0.00 0.00 0.00 92 1018.1
20260502025311 12 103 3.2 6.4 0.00 0.00 0.00 92 1018.2
20260502024312 12 28 3.2 6.4 0.00 0.00 0.00 91 1018.2
20260502023312 12 70 3.2 6.4 0.00 0.00 0.00 91 1018.3
20260502022311 12 77 4.8 8.0 0.00 0.00 0.00 91 1018.5
20260502020311 12 83 4.8 8.0 0.00 0.00 0.00 90 1018.8
20260502015311 12 46 3.2 6.4 0.00 0.00 0.00 90 1018.9
20260502013311 12 56 1.6 1.6 0.00 0.00 0.00 90 1019.3
20260502012311 12 314 1.6 3.2 0.00 0.00 0.00 90 1019.5
20260502011311 12 178 0.0 4.8 0.00 0.00 0.00 90 1019.7
20260502010311 12 296 1.6 1.6 0.00 0.00 0.00 90 1019.8
20260502005311 12 135 0.0 0.0 0.00 0.00 0.00 90 1019.9
20260502004312 12 46 0.0 1.6 0.00 0.00 0.00 90 1020.1
20260502003311 12 28 0.0 1.6 0.00 0.00 0.00 90 1020.2
20260502002311 12 152 0.0 1.6 0.00 0.00 0.00 90 1020.3
20260502001311 12 142 1.6 3.2 0.00 0.00 0.00 90 1020.4
20260502000311 12 206 0.0 1.6 0.00 0.00 0.00 89 1020.5
20260501235311 12 269 0.0 1.6 0.00 0.00 0.00 90 1020.6
20260501234311 12 124 1.6 3.2 0.00 0.00 0.00 90 1020.5
20260501233311 12 122 1.6 3.2 0.00 0.00 0.00 90 1020.4
20260501225312 12 127 1.6 3.2 0.00 0.00 0.00 89 1020.8
20260501224311 12 108 1.6 3.2 0.00 0.00 0.00 89 1020.9
20260501223311 12 124 1.6 3.2 0.00 0.00 0.00 89 1021.0
20260501222311 12 117 0.0 1.6 0.00 0.00 0.00 89 1020.9
20260501221311 12 142 0.0 3.2 0.00 0.00 0.00 89 1021.1
20260501215311 12 89 1.6 3.2 0.00 0.00 0.00 89 1021.1
20260501214311 12 107 1.6 3.2 0.00 0.00 0.00 89 1021.1
20260501213311 12 145 0.0 1.6 0.00 0.00 0.00 89 1021.3
20260501212311 12 178 1.6 3.2 0.00 0.00 0.00 88 1021.4
20260501211311 12 165 1.6 1.6 0.00 0.00 0.00 88 1021.3
20260501210311 12 152 0.0 1.6 0.00 0.00 0.00 88 1021.3
20260501205310 12 178 0.0 1.6 0.00 0.00 0.00 88 1021.2
20260501204310 15 178 3.2 8.0 0.00 0.00 0.00 84 1020.6
20260501203310 12 89 0.0 1.6 0.00 0.00 0.00 87 1021.3
20260501201311 13 135 0.0 0.0 0.00 0.00 0.00 87 1021.1
20260501200311 13 117 0.0 3.2 0.00 0.00 0.00 87 1021.0
20260501195312 13 46 1.6 3.2 0.00 0.00 0.00 87 1021.0
20260501194310 13 72 1.6 3.2 0.00 0.00 0.00 87 1021.0
20260501193310 13 28 1.6 3.2 0.00 0.00 0.00 87 1020.9
20260501192310 13 76 1.6 6.4 0.00 0.00 0.00 87 1020.9
20260501190310 13 269 1.6 4.8 0.00 0.00 0.00 86 1020.8
20260501185310 13 72 1.6 4.8 0.00 0.00 0.00 86 1020.7
20260501184310 13 51 3.2 4.8 0.00 0.00 0.00 86 1020.8
20260501183310 13 76 3.2 6.4 0.00 0.00 0.00 86 1020.7
20260501182310 13 20 1.6 3.2 0.00 0.00 0.00 85 1020.7
20260501181310 13 49 1.6 8.0 0.00 0.00 0.00 85 1020.6
20260501180310 13 79 3.2 6.4 0.00 0.00 0.00 84 1020.6
20260501175310 14 33 3.2 8.0 0.00 0.00 0.00 84 1020.7
20260501174310 14 89 3.2 8.0 0.00 0.00 0.00 83 1020.4
20260501173310 14 314 1.6 9.7 0.00 0.00 0.00 83 1020.7
20260501172310 15 41 4.8 9.7 0.00 0.00 0.00 84 1020.6
20260501171310 15 35 3.2 8.0 0.00 0.00 0.00 84 1020.7
20260501170310 15 349 4.8 9.7 0.00 0.00 0.00 84 1020.6
20260501165310 15 32 3.2 8.0 0.00 0.00 0.00 84 1020.6
20260501162310 14 79 6.4 12.9 0.00 0.00 0.00 85 1020.6
20260501161310 15 49 8.0 12.9 0.00 0.00 0.00 84 1020.7
20260501160310 15 89 3.2 12.9 0.00 0.00 0.00 84 1020.5
20260501155310 15 21 4.8 12.9 0.00 0.00 0.00 84 1020.6
20260501154310 15 96 8.0 12.9 0.00 0.00 0.00 84 1020.7
20260501151310 15 58 6.4 17.7 0.00 0.00 0.00 84 1020.9
20260501150310 15 27 8.0 16.1 0.00 0.00 0.00 84 1020.7